• In Hungary
  • List of Countries
  • For 7 days
  • Water Temperature
  • Satellite Maps
  • Weather Map
  • News
  • Weather Widgets
  • user-avatar
    Login

    Hourly Weather Brisbane

    Today, 16 August, Wednesday

    Time Temperature Precipitation Wind Pressure Humidity
    00:00 +17°C° 0 mm 3 mps 760 mmHg 65%
    01:00 +17°C° 0 mm 3 mps 759 mmHg 65%
    02:00 +16°C° 0 mm 3 mps 759 mmHg 65%
    03:00 +16°C° 0 mm 3 mps 759 mmHg 64%
    04:00 +16°C° 0 mm 2 mps 758 mmHg 65%
    05:00 +16°C° 0 mm 3 mps 759 mmHg 62%
    06:00 +17°C° 0 mm 3 mps 759 mmHg 60%
    07:00 +17°C° 0 mm 4 mps 759 mmHg 57%
    08:00 +21°C° 0 mm 4 mps 759 mmHg 48%
    09:00 +25°C° 0 mm 5 mps 759 mmHg 40%
    10:00 +27°C° 0 mm 5 mps 759 mmHg 35%
    11:00 +29°C° 0 mm 6 mps 758 mmHg 32%
    12:00 +32°C° 0 mm 6 mps 757 mmHg 28%
    13:00 +34°C° 0 mm 6 mps 757 mmHg 25%
    14:00 +34°C° 0 mm 6 mps 756 mmHg 26%
    15:00 +34°C° 0 mm 6 mps 756 mmHg 26%
    16:00 +32°C° 0 mm 7 mps 755 mmHg 32%
    17:00 +29°C° 0 mm 7 mps 755 mmHg 37%
    18:00 +28°C° 0 mm 6 mps 756 mmHg 42%
    19:00 +26°C° 0 mm 6 mps 756 mmHg 47%
    20:00 +24°C° 0 mm 6 mps 756 mmHg 50%
    21:00 +24°C° 0 mm 6 mps 757 mmHg 52%
    22:00 +23°C° 0 mm 5 mps 757 mmHg 54%
    23:00 +22°C° 0 mm 5 mps 757 mmHg 55%

    Tomorrow, 17 August, Thursday

    Time Temperature Precipitation Wind Pressure Humidity
    00:00 +22°C° 0 mm 4 mps 757 mmHg 55%
    01:00 +21°C° 0 mm 4 mps 757 mmHg 56%
    02:00 +21°C° 0 mm 4 mps 757 mmHg 57%
    03:00 +20°C° 0 mm 3 mps 757 mmHg 58%
    04:00 +20°C° 0 mm 3 mps 757 mmHg 60%
    05:00 +20°C° 0 mm 3 mps 757 mmHg 60%
    06:00 +20°C° 0 mm 3 mps 758 mmHg 59%
    07:00 +20°C° 0 mm 3 mps 758 mmHg 59%
    08:00 +22°C° 0 mm 3 mps 758 mmHg 51%
    09:00 +26°C° 0 mm 3 mps 758 mmHg 42%
    10:00 +29°C° 0 mm 3 mps 758 mmHg 33%
    11:00 +32°C° 0 mm 4 mps 757 mmHg 29%
    12:00 +33°C° 0 mm 4 mps 757 mmHg 25%
    13:00 +35°C° 0 mm 4 mps 756 mmHg 21%
    14:00 +35°C° 0 mm 4 mps 756 mmHg 21%
    15:00 +34°C° 0 mm 5 mps 755 mmHg 21%
    16:00 +34°C° 0 mm 5 mps 755 mmHg 22%
    17:00 +32°C° 0 mm 4 mps 756 mmHg 25%
    18:00 +28°C° 0 mm 4 mps 756 mmHg 29%
    19:00 +26°C° 0 mm 3 mps 757 mmHg 32%
    20:00 +25°C° 0 mm 3 mps 757 mmHg 35%
    21:00 +24°C° 0 mm 3 mps 758 mmHg 37%
    22:00 +21°C° 0 mm 3 mps 758 mmHg 39%
    23:00 +21°C° 0 mm 3 mps 759 mmHg 39%

    Day after tomorrow, 18 August, Friday

    Time Temperature Precipitation Wind Pressure Humidity
    00:00 +20°C° 0 mm 4 mps 759 mmHg 39%
    01:00 +19°C° 0 mm 4 mps 759 mmHg 39%
    02:00 +18°C° 0 mm 4 mps 759 mmHg 38%
    03:00 +18°C° 0 mm 4 mps 759 mmHg 37%
    04:00 +16°C° 0 mm 5 mps 759 mmHg 35%
    05:00 +16°C° 0 mm 5 mps 760 mmHg 35%
    06:00 +16°C° 0 mm 5 mps 760 mmHg 35%
    07:00 +16°C° 0 mm 5 mps 761 mmHg 35%
    08:00 +19°C° 0 mm 5 mps 761 mmHg 30%
    09:00 +21°C° 0 mm 6 mps 761 mmHg 26%
    10:00 +24°C° 0 mm 6 mps 761 mmHg 21%
    11:00 +24°C° 0 mm 6 mps 760 mmHg 19%
    12:00 +26°C° 0 mm 6 mps 759 mmHg 18%
    13:00 +27°C° 0 mm 7 mps 759 mmHg 17%
    14:00 +27°C° 0 mm 6 mps 759 mmHg 17%
    15:00 +26°C° 0 mm 6 mps 758 mmHg 17%
    16:00 +24°C° 0 mm 6 mps 758 mmHg 18%
    17:00 +23°C° 0 mm 6 mps 759 mmHg 21%
    18:00 +21°C° 0 mm 6 mps 760 mmHg 23%
    19:00 +19°C° 0 mm 6 mps 761 mmHg 26%
    20:00 +17°C° 0 mm 6 mps 761 mmHg 29%
    21:00 +16°C° 0 mm 6 mps 762 mmHg 32%
    22:00 +15°C° 0 mm 6 mps 762 mmHg 35%
    23:00 +14°C° 0 mm 6 mps 762 mmHg 36%

    19 August, Saturday

    Time Temperature Precipitation Wind Pressure Humidity
    00:00 +14°C° 0 mm 6 mps 762 mmHg 37%
    01:00 +13°C° 0 mm 6 mps 762 mmHg 38%
    02:00 +13°C° 0 mm 6 mps 762 mmHg 38%
    03:00 +11°C° 0 mm 6 mps 762 mmHg 39%
    04:00 +11°C° 0 mm 6 mps 762 mmHg 39%
    05:00 +11°C° 0 mm 6 mps 762 mmHg 40%
    06:00 +10°C° 0 mm 6 mps 762 mmHg 41%
    07:00 +10°C° 0 mm 6 mps 763 mmHg 42%
    08:00 +12°C° 0 mm 7 mps 763 mmHg 36%
    09:00 +15°C° 0 mm 7 mps 762 mmHg 31%
    10:00 +17°C° 0 mm 7 mps 762 mmHg 26%
    11:00 +18°C° 0 mm 7 mps 761 mmHg 24%
    12:00 +20°C° 0 mm 8 mps 761 mmHg 21%
    13:00 +20°C° 0 mm 8 mps 760 mmHg 19%
    14:00 +20°C° 0 mm 7 mps 760 mmHg 19%
    15:00 +20°C° 0 mm 7 mps 760 mmHg 18%
    16:00 +20°C° 0 mm 7 mps 759 mmHg 18%
    17:00 +17°C° 0 mm 7 mps 760 mmHg 20%
    18:00 +16°C° 0 mm 6 mps 761 mmHg 21%
    19:00 +14°C° 0 mm 6 mps 762 mmHg 23%
    20:00 +14°C° 0 mm 6 mps 762 mmHg 24%
    21:00 +13°C° 0 mm 6 mps 763 mmHg 25%
    22:00 +11°C° 0 mm 6 mps 763 mmHg 26%
    23:00 +10°C° 0 mm 5 mps 763 mmHg 29%

    20 August, Sunday

    Time Temperature Precipitation Wind Pressure Humidity
    00:00 +9°C° 0 mm 5 mps 763 mmHg 31%
    01:00 +9°C° 0 mm 5 mps 763 mmHg 34%
    02:00 +8°C° 0 mm 5 mps 763 mmHg 36%
    03:00 +8°C° 0 mm 5 mps 763 mmHg 38%
    04:00 +7°C° 0 mm 5 mps 763 mmHg 40%
    05:00 +7°C° 0 mm 4 mps 764 mmHg 42%
    06:00 +7°C° 0 mm 4 mps 764 mmHg 43%
    07:00 +7°C° 0 mm 4 mps 765 mmHg 44%
    08:00 +11°C° 0 mm 4 mps 764 mmHg 38%
    09:00 +14°C° 0 mm 3 mps 764 mmHg 32%
    10:00 +17°C° 0 mm 3 mps 764 mmHg 26%
    11:00 +19°C° 0 mm 2 mps 763 mmHg 22%
    12:00 +21°C° 0 mm 2 mps 763 mmHg 19%
    13:00 +24°C° 0 mm 1 mps 762 mmHg 15%
    14:00 +24°C° 0 mm 1 mps 762 mmHg 15%
    15:00 +23°C° 0 mm 1 mps 761 mmHg 16%
    16:00 +23°C° 0 mm 1 mps 761 mmHg 16%
    17:00 +19°C° 0 mm 2 mps 762 mmHg 24%
    18:00 +17°C° 0 mm 2 mps 762 mmHg 31%
    19:00 +15°C° 0 mm 2 mps 763 mmHg 39%
    20:00 +14°C° 0 mm 2 mps 763 mmHg 43%
    21:00 +13°C° 0 mm 1 mps 763 mmHg 46%
    22:00 +12°C° 0 mm 1 mps 764 mmHg 50%
    23:00 +12°C° 0 mm 1 mps 763 mmHg 50%

    21 August, Monday

    Time Temperature Precipitation Wind Pressure Humidity
    00:00 +11°C° 0 mm 1 mps 763 mmHg 50%
    01:00 +10°C° 0 mm 2 mps 763 mmHg 49%
    02:00 +9°C° 0 mm 2 mps 762 mmHg 48%
    03:00 +9°C° 0 mm 2 mps 762 mmHg 46%
    04:00 +9°C° 0 mm 2 mps 762 mmHg 44%
    05:00 +9°C° 0 mm 2 mps 762 mmHg 43%
    06:00 +9°C° 0 mm 2 mps 763 mmHg 42%
    07:00 +9°C° 0 mm 2 mps 763 mmHg 41%
    08:00 +14°C° 0 mm 1 mps 763 mmHg 34%
    09:00 +18°C° 0 mm 1 mps 763 mmHg 28%
    10:00 +21°C° 0 mm 1 mps 763 mmHg 22%
    11:00 +21°C° 0 mm 2 mps 762 mmHg 20%
    12:00 +23°C° 0 mm 2 mps 762 mmHg 19%
    13:00 +24°C° 0 mm 2 mps 761 mmHg 17%
    14:00 +23°C° 0 mm 2 mps 761 mmHg 23%
    15:00 +20°C° 0 mm 3 mps 761 mmHg 29%
    16:00 +19°C° 0 mm 3 mps 761 mmHg 35%
    17:00 +17°C° 0 mm 3 mps 762 mmHg 41%
    18:00 +16°C° 0 mm 3 mps 762 mmHg 48%
    19:00 +13°C° 0 mm 3 mps 763 mmHg 54%
    20:00 +14°C° 0 mm 2 mps 763 mmHg 55%
    21:00 +13°C° 0 mm 2 mps 763 mmHg 57%
    22:00 +13°C° 0 mm 2 mps 763 mmHg 58%
    23:00 +13°C° 0 mm 2 mps 763 mmHg 57%
    Show more